San Antonio Stinson, TX

3:32 AM CDT on April 25, 2017 (GMT -0500)
Stinson Municipal

Weather History for KSSF - March, 2014

Change the Weather History Date:

Wednesday, March 26, 2014

  Actual Average Record
Temperature  
Mean Temperature 60 °F -  
Max Temperature 64 °F 70 °F 89 °F (2008)
Min Temperature 55 °F 51 °F 41 °F (2006)
Degree Days  
Heating Degree Days 6    
Growing Degree Days 10 (Base 50)    
Moisture  
Dew Point 53 °F    
Average Humidity 80    
Maximum Humidity 93    
Minimum Humidity 51    
Precipitation  
Precipitation 0.63 in - - ()
Sea Level Pressure  
Sea Level Pressure 30.06 in    
Wind  
Wind Speed 12 mph (SSE)    
Max Wind Speed 25 mph    
Max Gust Speed 38 mph    
Visibility 8 miles    
Events Rain , Thunderstorm    
Averages and records for this station are not official NWS values.
T = Trace of Precipitation, MM = Missing Value Source: NWS Daily Summary

Daily Weather History Graph

Daily Weather History Graph

Search for Another Location

Airport or City:

Trip Planner

Search our weather history database for the weather conditions in past years. The results will help you decide how hot, cold, wet, or windy it might be!

Date:

Astronomy

Mar. 26, 2014 Rise Set
Actual Time 7:30 AM CDT 7:48 PM CDT
Civil Twilight 7:06 AM CDT 8:12 PM CDT
Nautical Twilight 6:39 AM CDT 8:40 PM CDT
Astronomical Twilight 6:10 AM CDT 9:08 PM CDT
Moon 4:20 AM CDT (3/26) 3:46 PM CDT (3/26)
Length of Visible Light 13h 05m
Length of Day
12h 18m
Waning Crescent, 21% of the Moon is Illuminated
Mar 26
Waning Crescent
Mar 30
New
Apr 7
First Quarter
Apr 15
Full
Apr 22
Last Quarter

Hourly Weather History & Observations

Time (CDT) Temp. Dew Point Humidity Pressure Visibility Wind Dir Wind Speed Gust Speed Precip Events Conditions
12:53 AM 60.1 °F 42.1 °F 51% 30.20 in 10.0 mi South 11.5 mph - N/A   Scattered Clouds
1:53 AM 59.0 °F 45.0 °F 60% 30.17 in 10.0 mi SSE 9.2 mph - N/A   Mostly Cloudy
2:53 AM 59.0 °F 46.0 °F 62% 30.17 in 10.0 mi South 8.1 mph - N/A   Scattered Clouds
3:53 AM 57.9 °F 46.9 °F 67% 30.12 in 10.0 mi SE 10.4 mph - N/A   Partly Cloudy
4:53 AM 57.0 °F 46.9 °F 69% 30.10 in 10.0 mi SSE 9.2 mph - N/A   Overcast
5:53 AM 57.0 °F 46.9 °F 69% 30.09 in 10.0 mi SSE 8.1 mph - N/A   Partly Cloudy
6:53 AM 57.0 °F 46.9 °F 69% 30.10 in 10.0 mi South 4.6 mph - N/A   Scattered Clouds
7:53 AM 55.0 °F 46.9 °F 74% 30.13 in 10.0 mi Calm Calm - N/A   Mostly Cloudy
8:53 AM 57.0 °F 48.0 °F 72% 30.10 in 10.0 mi SSE 8.1 mph 18.4 mph N/A   Overcast
9:53 AM 55.9 °F 52.0 °F 87% 30.14 in 3.0 mi SSE 15.0 mph - 0.09 in Rain Rain
10:53 AM 57.0 °F 54.0 °F 89% 30.17 in 4.0 mi SSE 10.4 mph - 0.15 in Rain Light Rain
11:28 AM 57.0 °F 55.0 °F 93% 30.10 in 7.0 mi SE 18.4 mph - 0.03 in Rain Light Rain
11:38 AM 57.0 °F 54.0 °F 89% 30.10 in 9.0 mi SE 16.1 mph - 0.03 in Rain , Thunderstorm Light Rain
11:53 AM 57.0 °F 54.0 °F 89% 30.11 in 6.0 mi SE 13.8 mph 20.7 mph 0.03 in Rain , Thunderstorm Light Rain
12:08 PM 57.0 °F 54.0 °F 89% 30.10 in 3.0 mi SE 13.8 mph - 0.03 in Rain Light Rain
12:17 PM 57.0 °F 54.0 °F 89% 30.09 in 2.0 mi SSE 11.5 mph 21.9 mph 0.07 in Rain Rain
12:40 PM 57.0 °F 54.0 °F 89% 30.08 in 2.5 mi SSE 21.9 mph 27.6 mph 0.19 in Rain , Thunderstorm Rain
12:53 PM 57.0 °F 54.0 °F 89% 30.08 in 2.5 mi SSE 21.9 mph 28.8 mph 0.24 in Rain , Thunderstorm Rain
1:13 PM 57.0 °F 54.0 °F 89% 30.05 in 3.0 mi SSE 25.3 mph 34.5 mph 0.08 in Rain Rain
1:53 PM 60.1 °F 55.9 °F 86% 30.00 in 10.0 mi SE 25.3 mph 38.0 mph 0.12 in Rain Light Rain
2:09 PM 61.0 °F 55.9 °F 83% 30.03 in 10.0 mi SE 23.0 mph 35.7 mph 0.00 in   Scattered Clouds
2:53 PM 64.0 °F 54.0 °F 70% 30.02 in 10.0 mi SE 16.1 mph 28.8 mph 0.00 in   Overcast
3:53 PM 63.0 °F 55.0 °F 75% 30.00 in 10.0 mi SSE 20.7 mph 25.3 mph N/A   Overcast
4:53 PM 62.1 °F 55.9 °F 80% 29.98 in 10.0 mi SSE 11.5 mph 19.6 mph N/A   Overcast
5:53 PM 63.0 °F 57.0 °F 81% 29.97 in 10.0 mi SE 15.0 mph 24.2 mph N/A   Overcast
6:53 PM 62.1 °F 57.0 °F 84% 29.96 in 10.0 mi SSE 12.7 mph 21.9 mph N/A   Overcast
7:53 PM 63.0 °F 57.0 °F 81% 29.97 in 10.0 mi SSE 9.2 mph 19.6 mph N/A   Overcast
8:53 PM 63.0 °F 57.9 °F 84% 29.96 in 10.0 mi SE 13.8 mph - N/A   Overcast
9:53 PM 63.0 °F 57.9 °F 84% 29.96 in 10.0 mi SE 12.7 mph 21.9 mph N/A   Overcast
10:22 PM 63.0 °F 57.9 °F 84% 29.96 in 10.0 mi SE 15.0 mph - N/A   Overcast
10:53 PM 63.0 °F 59.0 °F 87% 29.96 in 10.0 mi SE 9.2 mph - N/A   Overcast
11:43 PM 62.1 °F 60.1 °F 93% 29.96 in 4.0 mi SSE 9.2 mph - N/A   Overcast
11:53 PM 62.1 °F 60.1 °F 93% 29.95 in 3.0 mi SE 10.4 mph - N/A   Overcast